FW6595 Weather Reports


time (UTC)temp
C
wind
direction
speed
KPH
gust
KPH
rain 1hr
cm
rain 24hr
cm
rain mn
cm
humidity
%
barometer
mb
20260906140814 25 321 6.4 9.7 0.00 0.00 0.00 74 1013.2
20260906135817 25 165 4.8 6.4 0.00 0.00 0.00 76 1013.1
20260906134801 25 17 4.8 6.4 0.00 0.00 0.00 75 1013.2
20260906133749 25 343 1.6 4.8 0.00 0.00 0.00 75 1013.2
20260906132811 25 315 3.2 4.8 0.00 0.00 0.00 78 1013.2
20260906131755 24 286 3.2 4.8 0.00 0.00 0.00 79 1013.0
20260906130800 23 59 1.6 4.8 0.00 0.00 0.00 81 1013.1
20260906125745 23 327 6.4 8.0 0.00 0.00 0.00 82 1012.8
20260906124750 23 318 3.2 4.8 0.00 0.00 0.00 83 1012.7
20260906123753 23 48 4.8 8.0 0.00 0.00 0.00 84 1012.7
20260906122819 23 317 1.6 6.4 0.00 0.00 0.00 84 1012.6
20260906121756 23 9 3.2 4.8 0.00 0.00 0.00 84 1012.6
20260906120828 22 321 1.6 4.8 0.00 0.00 0.00 84 1012.5
20260906115752 22 354 1.6 3.2 0.00 0.00 0.00 84 1012.3
20260906114750 23 0.0 0.0 0.00 0.00 0.00 84 1012.2
20260906113748 23 0.0 0.0 0.00 0.00 0.00 84 1012.1
20260906112747 23 0.0 0.0 0.00 0.00 0.00 84 1012.0
20260906111750 23 0.0 0.0 0.00 0.00 0.00 83 1012.1
20260906110754 23 293 1.6 3.2 0.00 0.00 0.00 83 1011.8
20260906105758 23 302 0.0 3.2 0.00 0.00 0.00 83 1011.8
20260906104802 23 293 1.6 3.2 0.00 0.00 0.00 82 1011.7
20260906103748 23 304 0.0 1.6 0.00 0.00 0.00 82 1011.7
20260906102812 24 0.0 1.6 0.00 0.00 0.00 82 1011.8
20260906101757 24 319 1.6 3.2 0.00 0.00 0.00 82 1011.6
20260906100759 24 23 0.0 3.2 0.00 0.00 0.00 82 1011.5
20260906095746 24 307 1.6 3.2 0.00 0.00 0.00 81 1011.4
20260906094750 25 0 1.6 3.2 0.00 0.00 0.00 81 1011.3
20260906093755 25 344 1.6 3.2 0.00 0.00 0.00 80 1011.2
20260906092758 25 326 1.6 4.8 0.00 0.00 0.00 80 1011.2
20260906091822 25 300 1.6 3.2 0.00 0.00 0.00 80 1011.1
20260906090750 25 315 1.6 3.2 0.00 0.00 0.00 80 1011.2
20260906085752 25 325 1.6 3.2 0.00 0.00 0.00 80 1011.1
20260906084756 25 0.0 0.0 0.00 0.00 0.00 80 1011.1
20260906083800 25 322 1.6 3.2 0.00 0.00 0.00 80 1011.0
20260906082746 26 281 1.6 3.2 0.00 0.00 0.00 80 1010.9
20260906081750 26 68 0.0 3.2 0.00 0.00 0.00 80 1010.9
20260906080754 26 340 1.6 3.2 0.00 0.00 0.00 80 1010.9
20260906075758 26 126 3.2 4.8 0.00 0.00 0.00 80 1010.9
20260906074903 26 0.0 0.0 0.00 0.00 0.00 79 1011.0
20260906073808 26 339 3.2 4.8 0.00 0.00 0.00 79 1010.9
20260906072753 26 113 1.6 1.6 0.00 0.00 0.00 79 1010.9
20260906071758 27 340 3.2 4.8 0.00 0.00 0.00 79 1010.8
20260906070754 27 315 1.6 3.2 0.00 0.00 0.00 78 1010.7
20260906065746 27 351 3.2 8.0 0.00 0.00 0.00 78 1010.9
20260906064750 27 23 1.6 4.8 0.00 0.00 0.00 77 1010.9
20260906063748 27 13 1.6 3.2 0.00 0.00 0.00 77 1010.8
20260906062747 27 336 3.2 8.0 0.00 0.00 0.00 76 1010.8
20260906061802 28 90 3.2 8.0 0.00 0.00 0.00 75 1010.9
20260906060750 28 48 3.2 8.0 0.00 0.00 0.00 74 1011.0
20260906055752 28 293 3.2 3.2 0.00 0.00 0.00 73 1010.9
20260906054756 28 0.0 0.0 0.00 0.00 0.00 72 1011.0
20260906053800 28 223 3.2 8.0 0.00 0.00 0.00 72 1010.9
20260906052747 28 270 1.6 4.8 0.00 0.00 0.00 71 1010.9
20260906051751 28 283 4.8 6.4 0.00 0.00 0.00 71 1010.9
20260906050755 28 313 1.6 4.8 0.00 0.00 0.00 71 1010.7
20260906045759 28 323 1.6 4.8 0.00 0.00 0.00 71 1010.6
20260906044827 28 0.0 0.0 0.00 0.00 0.00 71 1010.4
20260906043749 28 0.0 0.0 0.00 0.00 0.00 70 1010.4
20260906042753 29 0.0 0.0 0.00 0.00 0.00 69 1010.4
20260906041757 29 0.0 0.0 0.00 0.00 0.00 67 1010.3
20260906040801 30 0.0 0.0 0.00 0.00 0.00 66 1010.3
20260906035748 30 0.0 0.0 0.00 0.00 0.00 66 1010.1
20260906034753 30 0.0 0.0 0.00 0.00 0.00 65 1010.1
20260906033754 30 338 1.6 3.2 0.00 0.00 0.00 64 1010.1
20260906032759 30 315 1.6 4.8 0.00 0.00 0.00 64 1010.0
20260906031804 30 0.0 0.0 0.00 0.00 0.00 63 1009.9
20260906030749 30 277 1.6 3.2 0.00 0.00 0.00 62 1009.8
20260906025753 30 299 4.8 6.4 0.00 0.00 0.00 62 1009.6
20260906024757 30 0.0 0.0 0.00 0.00 0.00 62 1009.5
20260906023803 30 0.0 0.0 0.00 0.00 0.00 62 1009.4
20260906022747 30 0.0 0.0 0.00 0.00 0.00 61 1009.4
20260906021751 30 0.0 0.0 0.00 0.00 0.00 61 1009.3
20260906020755 30 0.0 0.0 0.00 0.00 0.00 61 1009.1
20260906015755 30 0.0 0.0 0.00 0.00 0.00 60 1008.9
20260906014745 30 0.0 0.0 0.00 0.00 0.00 59 1008.9
20260906013749 31 0.0 0.0 0.00 0.00 0.00 59 1008.8
20260906012809 31 0.0 0.0 0.00 0.00 0.00 58 1008.6
20260906011746 31 0.0 0.0 0.00 0.00 0.00 57 1008.6
20260906010802 31 0.0 0.0 0.00 0.00 0.00 56 1008.4
20260906005749 32 0.0 0.0 0.00 0.00 0.00 56 1008.4
20260906004752 32 0.0 0.0 0.00 0.00 0.00 55 1008.4
20260906003756 32 0.0 0.0 0.00 0.00 0.00 54 1008.4
20260906002800 33 0.0 0.0 0.00 0.00 0.00 52 1008.4
20260906001746 33 0.0 0.0 0.00 0.00 0.00 51 1008.2
20260906000750 33 0.0 0.0 0.00 0.00 0.00 50 1008.2
20260905235755 34 0.0 0.0 0.00 0.00 0.00 49 1008.4
20260905234759 35 75 1.6 3.2 0.00 0.00 0.00 49 1008.4
20260905233801 35 0.0 0.0 0.00 0.00 0.00 48 1008.4
20260905232749 35 328 3.2 4.8 0.00 0.00 0.00 46 1008.4
20260905231812 35 0.0 0.0 0.00 0.00 0.00 47 1008.4
20260905230837 36 314 3.2 4.8 0.00 0.00 0.00 45 1008.4
20260905225800 36 18 3.2 4.8 0.00 0.00 0.00 43 1008.4
20260905224746 36 323 4.8 4.8 0.00 0.00 0.00 41 1008.1
20260905223750 37 292 3.2 6.4 0.00 0.00 0.00 41 1008.1
20260905222754 37 282 6.4 8.0 0.00 0.00 0.00 41 1008.1
20260905221758 37 320 3.2 4.8 0.00 0.00 0.00 41 1008.2
20260905220802 37 316 4.8 6.4 0.00 0.00 0.00 40 1008.1
20260905215749 37 293 6.4 9.7 0.00 0.00 0.00 41 1008.2
20260905214752 37 344 6.4 9.7 0.00 0.00 0.00 41 1008.1
20260905213756 37 301 4.8 6.4 0.00 0.00 0.00 42 1008.1
20260905212820 37 307 8.0 12.9 0.00 0.00 0.00 41 1008.1
20260905211746 37 327 8.0 11.3 0.00 0.00 0.00 41 1008.2
20260905210750 37 308 6.4 9.7 0.00 0.00 0.00 41 1008.4
20260905205754 37 293 6.4 11.3 0.00 0.00 0.00 42 1008.6
20260905204812 37 331 11.3 17.7 0.00 0.00 0.00 42 1008.6
20260905203750 37 337 6.4 9.7 0.00 0.00 0.00 39 1008.6
20260905202748 37 314 3.2 6.4 0.00 0.00 0.00 40 1008.6
20260905201746 38 311 8.0 11.3 0.00 0.00 0.00 39 1008.8
20260905200838 38 320 6.4 8.0 0.00 0.00 0.00 38 1008.8
20260905195803 38 290 4.8 8.0 0.00 0.00 0.00 38 1008.9
20260905194807 38 287 8.0 14.5 0.00 0.00 0.00 38 1009.1
20260905193750 38 291 4.8 8.0 0.00 0.00 0.00 38 1009.2
20260905192755 38 285 6.4 9.7 0.00 0.00 0.00 38 1009.4
20260905191759 38 325 4.8 6.4 0.00 0.00 0.00 38 1009.6
20260905190745 39 308 6.4 9.7 0.00 0.00 0.00 38 1009.6
20260905185749 38 323 8.0 14.5 0.00 0.00 0.00 38 1009.6
20260905184754 39 341 4.8 6.4 0.00 0.00 0.00 38 1009.9
20260905183758 39 295 4.8 8.0 0.00 0.00 0.00 40 1009.9
20260905182802 38 310 4.8 6.4 0.00 0.00 0.00 41 1010.0
20260905181749 38 308 4.8 8.0 0.00 0.00 0.00 40 1010.1
20260905180811 38 342 6.4 11.3 0.00 0.00 0.00 40 1010.1
20260905175817 38 327 4.8 9.7 0.00 0.00 0.00 42 1010.1
20260905174759 38 345 6.4 11.3 0.00 0.00 0.00 43 1010.3
20260905173746 37 298 4.8 6.4 0.00 0.00 0.00 42 1010.3
20260905172749 37 288 3.2 4.8 0.00 0.00 0.00 44 1010.4
20260905171815 37 5 4.8 8.0 0.00 0.00 0.00 44 1010.6
20260905170758 37 334 6.4 9.7 0.00 0.00 0.00 45 1010.8
20260905165802 36 307 4.8 8.0 0.00 0.00 0.00 45 1010.8
20260905164748 36 304 6.4 9.7 0.00 0.00 0.00 46 1010.9
20260905163753 36 74 3.2 4.8 0.00 0.00 0.00 48 1010.9
20260905162756 36 307 4.8 6.4 0.00 0.00 0.00 49 1011.0
20260905161820 35 303 3.2 4.8 0.00 0.00 0.00 50 1011.1
20260905160746 35 352 4.8 8.0 0.00 0.00 0.00 49 1011.1
20260905155750 35 3 3.2 4.8 0.00 0.00 0.00 50 1011.2
20260905154754 35 322 8.0 9.7 0.00 0.00 0.00 49 1011.2
20260905153754 35 291 4.8 6.4 0.00 0.00 0.00 52 1011.2
20260905152812 34 270 3.2 4.8 0.00 0.00 0.00 54 1011.2
20260905151749 33 292 4.8 9.7 0.00 0.00 0.00 55 1011.3
20260905150747 33 332 6.4 8.0 0.00 0.00 0.00 56 1011.3
20260905145757 33 318 6.4 9.7 0.00 0.00 0.00 56 1011.2
20260905144801 32 321 3.2 4.8 0.00 0.00 0.00 60 1011.1
20260905143746 31 322 1.6 4.8 0.00 0.00 0.00 60 1011.1
20260905142811 32 0.0 3.2 0.00 0.00 0.00 60 1011.1
20260905141815 31 328 3.2 3.2 0.00 0.00 0.00 61 1011.2